| time (UTC) | temp C | wind direction | speed KPH | gust KPH | rain 1hr cm | rain 24hr cm | rain mn cm | humidity % | barometer mb |
| 20260506091510 | 13 | 115 | 12.9 | 22.5 | 0.00 | 1.40 | 0.23 | 93 | 1007.3 |
| 20260506090008 | 13 | 134 | 12.9 | 25.7 | 0.00 | 1.40 | 0.23 | 93 | 1007.0 |
| 20260506084505 | 13 | 113 | 9.7 | 24.1 | 0.00 | 1.42 | 0.23 | 94 | 1007.0 |
| 20260506083002 | 13 | 130 | 4.8 | 20.9 | 0.00 | 1.42 | 0.23 | 93 | 1007.2 |
| 20260506081500 | 13 | 124 | 8.0 | 16.1 | 0.00 | 1.42 | 0.23 | 93 | 1007.3 |
| 20260506073058 | 13 | 131 | 11.3 | 20.9 | 0.00 | 1.42 | 0.23 | 95 | 1007.5 |
| 20260506071554 | 13 | 115 | 11.3 | 22.5 | 0.00 | 1.42 | 0.23 | 95 | 1007.4 |
| 20260506061547 | 12 | 162 | 9.7 | 17.7 | 0.03 | 1.78 | 0.23 | 95 | 1007.9 |
| 20260506044544 | 12 | 174 | 8.0 | 14.5 | 0.00 | 1.96 | 0.20 | 95 | 1008.2 |
| 20260506043035 | 12 | 159 | 4.8 | 17.7 | 0.03 | 1.96 | 0.20 | 95 | 1008.4 |
| 20260506041534 | 12 | 164 | 9.7 | 16.1 | 0.03 | 1.96 | 0.20 | 95 | 1008.5 |
| 20260506040050 | 12 | 113 | 4.8 | 17.7 | 0.05 | 1.96 | 0.20 | 95 | 1008.7 |
| 20260506034529 | 12 | 146 | 6.4 | 14.5 | 0.15 | 1.96 | 0.20 | 95 | 1008.6 |
| 20260506033028 | 12 | 161 | 4.8 | 16.1 | 0.18 | 1.93 | 0.18 | 95 | 1008.7 |
| 20260506031540 | 12 | 180 | 4.8 | 9.7 | 0.18 | 1.93 | 0.18 | 96 | 1008.7 |
| 20260506030023 | 12 | 229 | 4.8 | 11.3 | 0.15 | 1.93 | 0.15 | 96 | 1008.9 |
| 20260506024522 | 12 | 311 | 0.0 | 3.2 | 0.05 | 1.83 | 0.05 | 96 | 1009.3 |
| 20260506023019 | 12 | 339 | 0.0 | 3.2 | 0.00 | 1.75 | 0.00 | 96 | 1009.5 |
| 20260506021518 | 12 | 339 | 0.0 | 1.6 | 0.00 | 1.75 | 0.00 | 96 | 1009.7 |
| 20260506020017 | 12 | 339 | 0.0 | 0.0 | 0.00 | 1.75 | 0.00 | 95 | 1009.8 |
| 20260506014516 | 12 | 339 | 0.0 | 3.2 | 0.00 | 1.75 | 0.00 | 95 | 1009.8 |
| 20260506013015 | 12 | 339 | 0.0 | 4.8 | 0.00 | 1.75 | 0.00 | 95 | 1009.8 |
| 20260506011513 | 12 | 123 | 0.0 | 3.2 | 0.00 | 1.75 | 0.00 | 95 | 1009.9 |
| 20260506010013 | 12 | 124 | 0.0 | 3.2 | 0.00 | 1.75 | 0.00 | 95 | 1010.1 |
| 20260506004520 | 12 | 123 | 0.0 | 1.6 | 0.00 | 1.75 | 0.00 | 95 | 1010.3 |
| 20260506003012 | 12 | 123 | 0.0 | 3.2 | 0.00 | 1.75 | 0.00 | 95 | 1010.5 |
| 20260506001507 | 12 | 141 | 1.6 | 6.4 | 0.00 | 1.75 | 0.00 | 95 | 1010.5 |
| 20260506000005 | 12 | 107 | 1.6 | 4.8 | 0.00 | 1.75 | 0.00 | 95 | 1010.5 |
| 20260505234503 | 12 | 128 | 0.0 | 3.2 | 0.00 | 1.75 | 0.00 | 95 | 1010.8 |
| 20260505233002 | 12 | 128 | 0.0 | 3.2 | 0.00 | 1.75 | 0.00 | 95 | 1011.1 |
| 20260505231501 | 12 | 128 | 0.0 | 3.2 | 0.00 | 1.75 | 0.00 | 95 | 1011.0 |
| 20260505230059 | 12 | 128 | 0.0 | 3.2 | 0.00 | 1.75 | 0.00 | 95 | 1011.2 |
| 20260505224559 | 12 | 115 | 1.6 | 6.4 | 0.00 | 1.75 | 0.00 | 95 | 1011.3 |
| 20260505223058 | 12 | 138 | 1.6 | 8.0 | 0.00 | 1.75 | 0.00 | 95 | 1011.3 |
| 20260505221557 | 12 | 143 | 1.6 | 4.8 | 0.00 | 1.75 | 0.00 | 95 | 1011.4 |
| 20260505220056 | 12 | 120 | 1.6 | 4.8 | 0.10 | 1.75 | 0.00 | 95 | 1011.5 |
| 20260505214558 | 12 | 238 | 0.0 | 3.2 | 0.13 | 1.75 | 1.75 | 95 | 1011.6 |
| 20260505213053 | 12 | 242 | 0.0 | 3.2 | 0.18 | 1.75 | 1.75 | 95 | 1011.8 |
| 20260505211606 | 12 | 242 | 0.0 | 4.8 | 0.23 | 1.75 | 1.75 | 95 | 1011.9 |
| 20260505210051 | 12 | 107 | 0.0 | 4.8 | 0.10 | 1.65 | 1.65 | 95 | 1012.1 |
| 20260505204552 | 12 | 128 | 0.0 | 6.4 | 0.10 | 1.65 | 1.65 | 95 | 1012.1 |
| 20260505203052 | 12 | 157 | 3.2 | 11.3 | 0.05 | 1.57 | 1.57 | 95 | 1012.2 |
| 20260505201556 | 12 | 148 | 0.0 | 6.4 | 0.00 | 1.55 | 1.55 | 95 | 1012.2 |
| 20260505200050 | 12 | 148 | 3.2 | 11.3 | 0.03 | 1.55 | 1.55 | 95 | 1012.1 |
| 20260505194606 | 12 | 167 | 3.2 | 11.3 | 0.05 | 1.55 | 1.55 | 95 | 1012.0 |
| 20260505193048 | 12 | 172 | 0.0 | 4.8 | 0.15 | 1.55 | 1.55 | 95 | 1011.9 |
| 20260505191547 | 12 | 45 | 0.0 | 1.6 | 0.15 | 1.55 | 1.55 | 95 | 1011.9 |
| 20260505190049 | 12 | 44 | 3.2 | 6.4 | 0.15 | 1.52 | 1.52 | 95 | 1011.8 |
| 20260505184546 | 12 | 19 | 0.0 | 1.6 | 0.18 | 1.45 | 1.45 | 95 | 1011.6 |
| 20260505183045 | 12 | 19 | 0.0 | 3.2 | 0.15 | 1.40 | 1.40 | 95 | 1011.5 |
| 20260505181550 | 12 | 20 | 0.0 | 1.6 | 0.15 | 1.40 | 1.40 | 95 | 1011.4 |
| 20260505180044 | 12 | 20 | 0.0 | 8.0 | 0.13 | 1.37 | 1.37 | 95 | 1011.5 |
| 20260505174552 | 12 | 343 | 3.2 | 8.0 | 0.13 | 1.27 | 1.27 | 94 | 1011.5 |
| 20260505173043 | 12 | 342 | 3.2 | 8.0 | 0.13 | 1.24 | 1.24 | 94 | 1011.6 |
| 20260505171543 | 12 | 296 | 1.6 | 6.4 | 0.23 | 1.24 | 1.24 | 94 | 1011.7 |
| 20260505170042 | 12 | 333 | 3.2 | 6.4 | 0.25 | 1.24 | 1.24 | 94 | 1011.6 |
| 20260505164552 | 12 | 329 | 3.2 | 6.4 | 0.18 | 1.17 | 1.17 | 94 | 1011.6 |
| 20260505163051 | 12 | 342 | 3.2 | 6.4 | 0.15 | 1.12 | 1.12 | 94 | 1011.7 |
| 20260505161641 | 12 | 339 | 3.2 | 8.0 | 0.05 | 1.02 | 1.02 | 94 | 1011.7 |
| 20260505153040 | 12 | 350 | 1.6 | 6.4 | 0.03 | 0.97 | 0.97 | 94 | 1011.9 |
| 20260505151540 | 12 | 39 | 3.2 | 6.4 | 0.03 | 0.97 | 0.97 | 93 | 1011.9 |
| 20260505124539 | 12 | 55 | 4.8 | 8.0 | 0.03 | 0.94 | 0.94 | 92 | 1012.5 |
| 20260505123038 | 12 | 74 | 1.6 | 8.0 | 0.03 | 0.91 | 0.91 | 92 | 1012.5 |
| 20260505121533 | 12 | 42 | 1.6 | 6.4 | 0.05 | 0.91 | 0.91 | 93 | 1012.4 |
| 20260505120033 | 12 | 5 | 4.8 | 9.7 | 0.08 | 0.91 | 0.91 | 92 | 1012.5 |
| 20260505114531 | 12 | 5 | 3.2 | 8.0 | 0.13 | 0.91 | 0.91 | 92 | 1012.5 |
| 20260505113031 | 12 | 329 | 1.6 | 6.4 | 0.13 | 0.89 | 0.89 | 92 | 1012.6 |
| 20260505111536 | 12 | 44 | 1.6 | 4.8 | 0.13 | 0.89 | 0.89 | 92 | 1012.6 |
| 20260505101527 | 12 | 31 | 6.4 | 14.5 | 0.15 | 0.76 | 0.76 | 91 | 1012.6 |
| 20260505100030 | 13 | 11 | 4.8 | 9.7 | 0.13 | 0.71 | 0.71 | 90 | 1012.6 |
| 20260505094525 | 13 | 342 | 4.8 | 9.7 | 0.10 | 0.69 | 0.69 | 90 | 1012.7 |
| 20260505093025 | 12 | 30 | 4.8 | 14.5 | 0.10 | 0.66 | 0.66 | 89 | 1012.7 |